Theta_e
336 342 346 352 351 352 352 351 350 349 347 346 345 344 343 341 343 343 340 339 338 339 339 339 340 340 340 339 340 339 339 341
334 338 342 352 352 352 353 351 350 349 348 347 347 345 344 344 343 342 340 339 340 340 341 342 342 343 343 342 342 343 341 341
333 335 338 352 352 351 352 352 351 349 348 347 347 346 345 345 345 342 341 341 341 341 342 343 343 344 345 342 342 342 343 343
330 331 332 344 348 352 352 351 350 349 348 348 347 346 346 346 346 345 344 342 343 344 344 344 345 346 345 343 342 340 340 342
326 328 328 336 342 344 346 352 351 350 349 348 348 348 347 347 347 346 345 346 344 344 345 345 346 347 346 345 342 340 339 339
332 325 325 329 337 340 342 345 351 350 350 349 349 348 345 341 342 342 344 345 344 344 345 347 348 348 347 344 341 340 339 335
328 331 325 327 333 335 338 338 343 343 342 343 343 342 341 338 339 341 343 345 344 345 347 348 349 348 345 338 336 338 335 333
328 330 331 328 330 332 334 334 336 341 340 341 339 338 339 338 339 341 338 340 341 345 341 344 346 345 340 335 334 332 331 330
316 323 331 332 330 330 331 332 333 337 337 337 338 338 338 337 335 336 336 335 336 338 339 340 339 339 337 335 333 331 330 329
313 316 317 332 333 332 330 331 331 332 336 335 336 337 337 336 333 333 334 333 332 333 336 337 336 336 335 334 333 331 331 330
313 313 314 328 334 334 331 330 330 331 334 333 334 336 337 335 333 332 331 330 329 331 333 335 334 334 333 332 331 331 331 331
314 315 314 320 332 333 333 332 330 331 334 333 334 336 336 335 332 331 329 328 329 330 332 332 332 332 330 330 329 331 331 331
313 313 315 317 329 333 334 334 333 332 334 334 334 336 337 335 333 331 329 329 330 329 330 330 330 329 329 329 328 329 330 329
313 313 313 314 326 331 333 333 331 332 333 333 333 335 336 335 333 331 330 330 331 330 329 329 328 329 326 326 327 327 327 327
312 313 313 313 319 329 329 328 330 332 332 333 333 334 335 335 334 332 331 330 330 328 327 327 327 326 326 326 325 326 326 327
313 312 312 313 320 328 328 327 326 329 331 330 332 335 334 335 334 333 331 330 329 328 328 327 326 325 323 324 323 322 324 325
311 313 315 314 324 327 329 326 328 326 327 329 332 335 336 335 334 333 332 329 329 327 327 325 326 325 325 326 321 320 314 319
310 313 318 321 326 329 328 326 324 325 325 325 326 328 332 334 334 333 331 329 327 328 326 326 327 325 321 323 323 318 311 311
309 319 325 327 329 330 328 326 327 324 323 323 324 327 329 332 332 331 329 328 328 327 326 325 325 324 321 319 321 320 318 317
Wind_Speed
10 13 18 24 23 22 21 20 19 19 18 17 18 17 17 16 15 13 13 12 10 9 8 6 5 5 4 4 4 4 5 5
10 11 13 21 22 21 21 21 21 20 20 18 18 18 17 16 15 14 12 11 11 10 9 8 6 6 6 5 5 6 6 6
12 12 12 21 22 21 21 20 21 21 20 20 19 19 18 17 17 15 14 13 12 11 10 8 7 7 5 4 5 6 7 8
7 7 5 9 15 19 20 21 21 21 21 21 20 19 19 18 17 16 15 14 13 12 11 10 10 7 6 6 5 6 6 8
3 6 7 7 11 12 13 22 21 20 20 20 20 20 18 18 17 16 15 14 14 14 13 12 11 9 8 7 7 7 7 8
5 6 8 9 9 10 9 11 18 21 20 20 18 20 16 8 10 13 13 15 14 14 13 12 11 10 9 9 8 8 9 2
7 9 9 8 11 10 9 9 11 10 10 10 11 10 8 7 7 9 12 17 16 14 13 12 11 11 10 3 3 5 2 3
11 3 12 13 12 12 11 7 6 6 6 7 9 9 8 6 7 6 4 5 4 11 4 6 6 4 5 4 4 3 4 4
6 9 9 12 11 12 8 8 8 7 8 6 8 9 8 6 6 5 4 5 4 3 4 4 3 4 5 5 5 5 5 4
9 14 12 9 13 13 13 8 8 10 9 9 8 9 10 8 8 6 6 5 4 3 3 4 4 4 5 6 5 6 6 6
10 11 8 11 14 12 13 14 11 9 9 8 8 9 12 8 8 8 6 5 4 4 4 5 5 5 6 5 6 7 8 6
9 8 11 10 9 13 15 14 9 8 8 8 8 9 11 10 9 9 6 6 6 5 4 4 4 3 3 4 6 5 5 5
9 10 10 7 11 14 14 10 9 8 8 7 7 8 11 11 11 8 7 7 4 4 4 3 4 3 4 5 5 4 4 4
10 10 10 6 10 13 9 6 6 6 6 5 6 7 12 12 11 9 7 5 6 5 4 4 3 3 3 3 4 3 4 4
10 9 10 6 8 7 6 4 4 4 4 6 6 7 10 8 10 9 7 6 6 4 4 3 4 4 3 2 3 4 4 4
10 10 9 7 7 8 5 4 3 5 5 4 5 7 10 9 10 10 7 6 6 6 7 6 3 4 3 3 2 2 3 3
10 11 8 6 6 7 5 3 4 4 3 3 4 6 7 9 10 10 9 7 7 5 4 4 4 2 2 4 2 1 1 2
10 9 8 5 8 8 8 6 4 5 4 3 2 2 5 8 8 7 7 6 6 4 4 4 6 6 4 3 3 2 2 3
11 5 5 7 8 9 10 8 11 5 5 3 4 3 4 5 5 5 6 6 5 3 4 4 5 5 3 4 2 2 3 2
Wind_Direction
160 173 178 182 186 187 188 186 186 184 180 180 177 175 172 172 172 173 175 176 180 179 184 188 199 209 213 229 258 267 274 283
169 181 181 182 189 191 191 189 187 187 184 184 182 181 179 177 177 178 181 184 189 193 198 199 207 234 244 246 269 272 262 270
173 178 183 187 193 191 195 196 193 189 188 186 186 186 183 182 180 182 185 193 197 201 204 213 215 232 252 246 255 283 270 272
155 164 182 198 202 197 197 199 199 194 192 191 188 188 187 186 184 183 187 194 200 207 209 214 223 226 240 248 247 266 273 272
166 174 183 194 194 204 204 204 202 199 197 195 194 192 188 188 188 188 188 195 201 208 209 214 223 225 228 233 248 257 265 267
200 200 191 194 204 203 214 219 204 204 204 201 201 196 190 186 189 193 192 197 205 212 214 214 221 218 219 232 240 251 263 244
214 209 196 213 211 199 207 200 209 208 206 205 202 195 187 174 179 187 196 201 209 215 220 220 223 219 217 200 240 260 270 251
226 193 202 205 198 204 209 194 198 200 202 205 195 183 178 171 186 191 188 204 193 220 216 223 222 212 195 195 212 223 251 255
231 242 225 208 199 207 203 205 200 200 202 202 200 181 176 177 177 178 186 199 197 200 207 202 202 198 206 205 210 225 234 242
251 249 232 181 200 205 202 204 197 204 201 198 188 188 185 184 178 174 192 193 189 179 207 212 203 198 208 215 214 222 235 238
230 237 230 206 208 195 202 202 200 204 198 189 189 192 190 182 179 191 193 194 193 200 211 205 202 205 214 210 216 220 234 224
258 250 214 211 189 198 204 205 207 196 188 190 189 185 182 176 175 187 185 197 212 199 205 209 210 194 200 214 234 231 233 223
247 252 254 196 194 203 205 198 198 188 179 183 175 173 178 179 178 181 194 198 206 186 199 194 193 198 212 208 218 222 220 232
257 264 275 206 204 203 197 175 161 152 169 161 154 170 183 188 179 189 195 181 184 200 186 191 199 190 191 227 224 216 231 230
278 264 253 236 202 159 129 112 113 145 152 152 164 185 185 183 177 173 185 191 172 163 166 181 191 190 187 223 254 262 250 236
278 276 250 204 173 141 132 140 126 175 156 153 174 181 180 175 170 180 176 186 158 170 194 192 155 190 232 184 219 257 247 230
264 273 268 216 167 163 148 140 137 138 166 156 166 181 177 172 176 182 180 168 170 159 173 161 171 194 241 180 170 223 226 262
261 266 264 195 169 158 138 116 90 82 72 97 138 148 186 181 172 169 165 153 151 160 185 195 206 201 218 185 191 163 132 223
270 242 199 160 152 150 142 135 149 142 152 165 144 142 145 150 152 148 138 136 158 161 182 203 187 192 158 178 149 197 71 122